Meteo pe oră la Al Khubar

Astăzi, 28 Ianuarie, Joi

Timp Temperatura Precipitaţii Vânt Presiune Umiditate
00:00 +17°C° 0 mm 2 m/s 763 mmHg 63%
01:00 +18°C° 0 mm 1 m/s 762 mmHg 64%
02:00 +16°C° 0 mm 1 m/s 762 mmHg 65%
03:00 +15°C° 0 mm 1 m/s 762 mmHg 66%
04:00 +15°C° 0 mm 1 m/s 762 mmHg 66%
05:00 +15°C° 0 mm 1 m/s 762 mmHg 66%
06:00 +14°C° 0 mm 0 m/s 762 mmHg 66%
07:00 +18°C° 0 mm 1 m/s 763 mmHg 58%
08:00 +19°C° 0 mm 2 m/s 763 mmHg 51%
09:00 +21°C° 0 mm 2 m/s 763 mmHg 44%
10:00 +23°C° 0 mm 2 m/s 763 mmHg 38%
11:00 +25°C° 0 mm 2 m/s 763 mmHg 33%
12:00 +26°C° 0 mm 2 m/s 762 mmHg 27%
13:00 +26°C° 0 mm 2 m/s 762 mmHg 26%
14:00 +26°C° 0 mm 2 m/s 761 mmHg 25%
15:00 +26°C° 0 mm 2 m/s 761 mmHg 24%
16:00 +25°C° 0 mm 3 m/s 761 mmHg 29%
17:00 +22°C° 0 mm 3 m/s 761 mmHg 34%
18:00 +21°C° 0 mm 4 m/s 761 mmHg 40%
19:00 +21°C° 0 mm 4 m/s 761 mmHg 46%
20:00 +20°C° 0 mm 5 m/s 761 mmHg 52%
21:00 +20°C° 0 mm 5 m/s 762 mmHg 59%
22:00 +19°C° 0 mm 5 m/s 761 mmHg 60%
23:00 +19°C° 0 mm 5 m/s 761 mmHg 61%

Mâine, 29 Ianuarie, Vineri

Timp Temperatura Precipitaţii Vânt Presiune Umiditate
00:00 +19°C° 0 mm 5 m/s 761 mmHg 62%
01:00 +19°C° 0 mm 5 m/s 761 mmHg 62%
02:00 +19°C° 0 mm 5 m/s 761 mmHg 63%
03:00 +17°C° 0 mm 5 m/s 760 mmHg 63%
04:00 +17°C° 0 mm 5 m/s 760 mmHg 62%
05:00 +17°C° 0 mm 5 m/s 761 mmHg 60%
06:00 +17°C° 0 mm 5 m/s 761 mmHg 59%
07:00 +19°C° 0 mm 5 m/s 761 mmHg 54%
08:00 +20°C° 0 mm 6 m/s 761 mmHg 49%
09:00 +21°C° 0 mm 6 m/s 761 mmHg 43%
10:00 +23°C° 0 mm 6 m/s 761 mmHg 40%
11:00 +24°C° 0 mm 6 m/s 761 mmHg 36%
12:00 +26°C° 0 mm 6 m/s 760 mmHg 32%
13:00 +27°C° 0 mm 6 m/s 759 mmHg 31%
14:00 +27°C° 0 mm 5 m/s 759 mmHg 31%
15:00 +27°C° 0 mm 5 m/s 758 mmHg 30%
16:00 +26°C° 0 mm 5 m/s 758 mmHg 33%
17:00 +25°C° 0 mm 5 m/s 758 mmHg 36%
18:00 +24°C° 0 mm 6 m/s 759 mmHg 38%
19:00 +23°C° 0 mm 6 m/s 759 mmHg 43%
20:00 +22°C° 0 mm 7 m/s 759 mmHg 48%
21:00 +21°C° 0 mm 8 m/s 759 mmHg 53%
22:00 +21°C° 0 mm 8 m/s 758 mmHg 53%
23:00 +21°C° 0 mm 8 m/s 758 mmHg 53%

Poimâine, 30 Ianuarie, Sâmbătă

Timp Temperatura Precipitaţii Vânt Presiune Umiditate
00:00 +21°C° 0 mm 8 m/s 758 mmHg 53%
01:00 +20°C° 0 mm 7 m/s 758 mmHg 49%
02:00 +20°C° 0 mm 5 m/s 758 mmHg 45%
03:00 +19°C° 0 mm 4 m/s 758 mmHg 42%
04:00 +19°C° 0 mm 4 m/s 758 mmHg 38%
05:00 +19°C° 0 mm 4 m/s 759 mmHg 34%
06:00 +19°C° 0 mm 4 m/s 759 mmHg 31%
07:00 +20°C° 0 mm 6 m/s 760 mmHg 34%
08:00 +21°C° 0 mm 8 m/s 760 mmHg 38%
09:00 +22°C° 0 mm 9 m/s 761 mmHg 41%
10:00 +23°C° 0 mm 10 m/s 761 mmHg 40%
11:00 +23°C° 0 mm 10 m/s 761 mmHg 39%
12:00 +24°C° 0 mm 10 m/s 761 mmHg 37%
13:00 +23°C° 0 mm 10 m/s 760 mmHg 37%
14:00 +23°C° 0 mm 10 m/s 760 mmHg 37%
15:00 +23°C° 0 mm 10 m/s 760 mmHg 37%
16:00 +21°C° 0 mm 10 m/s 761 mmHg 39%
17:00 +19°C° 0 mm 9 m/s 762 mmHg 42%
18:00 +18°C° 0 mm 9 m/s 762 mmHg 44%
19:00 +18°C° 0 mm 9 m/s 763 mmHg 46%
20:00 +17°C° 0 mm 8 m/s 763 mmHg 47%
21:00 +17°C° 0 mm 8 m/s 764 mmHg 48%
22:00 +16°C° 0 mm 8 m/s 764 mmHg 49%
23:00 +16°C° 0 mm 8 m/s 763 mmHg 50%

31 Ianuarie, Duminică

Timp Temperatura Precipitaţii Vânt Presiune Umiditate
00:00 +16°C° 0 mm 7 m/s 763 mmHg 51%
01:00 +15°C° 0 mm 7 m/s 763 mmHg 51%
02:00 +15°C° 0 mm 7 m/s 763 mmHg 52%
03:00 +15°C° 0 mm 7 m/s 763 mmHg 52%
04:00 +15°C° 0 mm 7 m/s 763 mmHg 52%
05:00 +14°C° 0 mm 7 m/s 763 mmHg 53%
06:00 +14°C° 0 mm 7 m/s 763 mmHg 53%
07:00 +15°C° 0 mm 6 m/s 764 mmHg 50%
08:00 +16°C° 0 mm 6 m/s 764 mmHg 46%
09:00 +17°C° 0 mm 6 m/s 764 mmHg 42%
10:00 +19°C° 0 mm 6 m/s 764 mmHg 38%
11:00 +21°C° 0 mm 6 m/s 764 mmHg 33%
12:00 +22°C° 0 mm 6 m/s 763 mmHg 29%
13:00 +22°C° 0 mm 6 m/s 763 mmHg 30%
14:00 +22°C° 0 mm 7 m/s 763 mmHg 31%
15:00 +22°C° 0 mm 7 m/s 763 mmHg 31%
16:00 +20°C° 0 mm 7 m/s 763 mmHg 37%
17:00 +18°C° 0 mm 7 m/s 763 mmHg 42%
18:00 +16°C° 0 mm 7 m/s 764 mmHg 48%
19:00 +16°C° 0 mm 6 m/s 764 mmHg 49%
20:00 +15°C° 0 mm 6 m/s 764 mmHg 51%
21:00 +15°C° 0 mm 6 m/s 765 mmHg 52%
22:00 +15°C° 0 mm 6 m/s 765 mmHg 52%
23:00 +14°C° 0 mm 6 m/s 765 mmHg 53%

1 Februarie, Luni

Timp Temperatura Precipitaţii Vânt Presiune Umiditate
00:00 +14°C° 0 mm 7 m/s 764 mmHg 53%
01:00 +14°C° 0 mm 7 m/s 764 mmHg 52%
02:00 +14°C° 0 mm 7 m/s 764 mmHg 52%
03:00 +12°C° 0 mm 7 m/s 764 mmHg 51%
04:00 +12°C° 0 mm 7 m/s 764 mmHg 52%
05:00 +13°C° 0 mm 6 m/s 764 mmHg 52%
06:00 +13°C° 0 mm 6 m/s 765 mmHg 53%
07:00 +15°C° 0 mm 7 m/s 765 mmHg 49%
08:00 +16°C° 0 mm 7 m/s 765 mmHg 45%
09:00 +18°C° 0 mm 7 m/s 766 mmHg 41%
10:00 +20°C° 0 mm 7 m/s 766 mmHg 37%
11:00 +22°C° 0 mm 7 m/s 765 mmHg 33%
12:00 +23°C° 0 mm 6 m/s 765 mmHg 29%
13:00 +23°C° 0 mm 6 m/s 764 mmHg 29%
14:00 +23°C° 0 mm 6 m/s 764 mmHg 29%
15:00 +23°C° 0 mm 7 m/s 764 mmHg 29%
16:00 +21°C° 0 mm 6 m/s 764 mmHg 33%
17:00 +20°C° 0 mm 6 m/s 764 mmHg 37%
18:00 +17°C° 0 mm 6 m/s 764 mmHg 42%
19:00 +17°C° 0 mm 6 m/s 764 mmHg 45%
20:00 +16°C° 0 mm 6 m/s 765 mmHg 48%
21:00 +16°C° 0 mm 6 m/s 765 mmHg 52%
22:00 +15°C° 0 mm 6 m/s 765 mmHg 52%
23:00 +15°C° 0 mm 6 m/s 764 mmHg 52%

2 Februarie, Marţi

Timp Temperatura Precipitaţii Vânt Presiune Umiditate
00:00 +15°C° 0 mm 6 m/s 764 mmHg 52%
01:00 +15°C° 0 mm 6 m/s 764 mmHg 51%
02:00 +15°C° 0 mm 6 m/s 764 mmHg 50%
03:00 +14°C° 0 mm 6 m/s 764 mmHg 49%
04:00 +14°C° 0 mm 6 m/s 764 mmHg 48%
05:00 +14°C° 0 mm 6 m/s 764 mmHg 47%
06:00 +14°C° 0 mm 6 m/s 764 mmHg 46%
07:00 +16°C° 0 mm 6 m/s 764 mmHg 45%
08:00 +17°C° 0 mm 6 m/s 765 mmHg 44%
09:00 +20°C° 0 mm 7 m/s 765 mmHg 43%
10:00 +22°C° 0 mm 7 m/s 765 mmHg 39%
11:00 +23°C° 0 mm 7 m/s 764 mmHg 34%
12:00 +24°C° 0 mm 7 m/s 764 mmHg 29%
13:00 +24°C° 0 mm 6 m/s 764 mmHg 29%
14:00 +24°C° 0 mm 6 m/s 763 mmHg 29%
15:00 +24°C° 0 mm 6 m/s 763 mmHg 29%
16:00 +22°C° 0 mm 6 m/s 763 mmHg 35%
17:00 +21°C° 0 mm 6 m/s 763 mmHg 41%
18:00 +19°C° 0 mm 5 m/s 763 mmHg 47%
19:00 +19°C° 0 mm 5 m/s 763 mmHg 51%
20:00 +17°C° 0 mm 5 m/s 763 mmHg 55%
21:00 +17°C° 0 mm 4 m/s 763 mmHg 58%
22:00 +17°C° 0 mm 4 m/s 763 mmHg 59%
23:00 +17°C° 0 mm 4 m/s 763 mmHg 59%
Arată mai mult

Formular de consimțământ

Meteoprog și furnizorii noștri de servicii pot stoca și accesa date personale, precum cookies, identificatori de dispozitiv sau alte tehnologii similare pe dispozitivul dumneavoastră și procesa astfel de date pentru a personaliza conținutul și reclamele, dar și pentru a oferi caracteristici de social media și pentru a analiza traficul.

  • Stocarea și/sau accesarea informațiilor pe dispozitivul dumneavoastră

    Cookies, identificatori de dispozitiv sau alte informații pot fi stocate sau accesate pe dispozitiv în scopurile indicate mai sus.

  • Reclame și conținut personalizat, evaluarea reclamelor și a conținutului, informații despre audiențe și dezvoltarea produselor

    Reclamele și conținutul pot fi personalizate pe baza unui profil. Pot fi adăugate date suplimentare pentru a personaliza mai bine reclamele și conținutul. Performanța reclamelor și conținutului poate fi măsurată. Pot fi obținute informații despre utilizatorii care au văzut reclamele și conținutul. Aceste date pot fi utilizate pentru a dezvolta sau îmbunătăți experiența utilizatorilor, sistemele și software-ul.

Dând clic pe ‘Sunt de acord’, permiteți utilizarea cookie-urilor menționate, a identificatorilor de dispozitiv, balizelor web sau altor tehnologii similare. Setările pot fi modificate din browser-ul dispozitivului dumneavoastră.

În anumite scopuri, interesele legitime pot prima asupra consimțământului. Puteți citi mai multe informații în acest sens în Politica privind Confidențialitatea Datelor și Cookie.